GFSFLT1_prec_snow_363.txt.gz
Snowfall_Accumulation
0.0 0.0 0.0 0.0 0.0 0.0 0.0 0.0 0.0 0.0 0.0 0.0 0.0 0.0 0.0 0.0 0.0 0.0 0.0 0.0 0.0 0.0 0.0 0.0 0.0 0.0 0.0 0.0 0.0 0.0 0.0 0.0
0.0 0.0 0.0 0.0 0.0 0.0 0.0 0.0 0.0 0.0 0.0 0.0 0.0 0.0 0.0 0.0 0.0 0.0 0.0 0.0 0.0 0.0 0.0 0.0 0.0 0.0 0.0 0.0 0.0 0.0 0.0 0.0
0.0 0.0 0.0 0.0 0.0 0.0 0.0 0.0 0.0 0.0 0.0 0.0 0.0 0.0 0.0 0.0 0.0 0.0 0.0 0.0 0.0 0.0 0.0 0.0 0.0 0.0 0.0 0.0 0.0 0.0 0.0 0.0
0.0 0.0 0.0 0.0 0.0 0.0 0.0 0.0 0.0 0.0 0.0 0.0 0.0 0.0 0.0 0.0 0.0 0.0 0.0 0.0 0.0 0.0 0.0 0.0 0.0 0.0 0.0 0.0 0.0 0.0 0.2 0.0
0.0 0.0 0.0 0.0 0.0 0.0 0.0 0.0 0.0 0.0 0.0 0.0 0.0 0.0 0.0 0.0 0.0 0.0 0.0 0.0 0.0 0.0 0.0 0.0 0.0 0.0 0.0 0.0 0.0 0.1 0.1 0.2
0.0 0.0 0.0 0.0 0.0 0.0 0.0 0.0 0.0 0.0 0.0 0.0 0.0 0.0 0.0 0.0 0.0 0.0 0.0 0.0 0.0 0.0 0.0 0.0 0.0 0.0 0.0 0.1 0.1 0.0 0.1 0.3
0.0 0.0 0.0 0.0 0.0 0.0 0.0 0.0 0.0 0.0 0.0 0.0 0.0 0.0 0.0 0.0 0.0 0.0 0.0 0.0 0.0 0.0 0.0 0.0 0.0 0.0 0.1 0.0 0.2 0.2 0.2 0.1
0.0 0.0 0.0 0.0 0.0 0.0 0.0 0.0 0.0 0.0 0.0 0.0 0.0 0.0 0.0 0.0 0.1 0.1 0.1 0.1 0.1 0.0 0.0 0.1 0.0 0.1 0.1 0.2 0.1 0.2 0.3 0.4
0.0 0.0 0.0 0.0 0.0 0.0 0.0 0.0 0.0 0.0 0.0 0.0 0.0 0.0 0.0 0.2 0.2 0.3 0.3 0.5 0.5 0.4 0.3 0.1 0.1 0.4 0.1 0.2 0.3 0.3 0.4 0.7
0.1 0.0 0.0 0.0 0.0 0.0 0.1 0.0 0.0 0.0 0.0 0.0 0.0 0.1 0.3 0.4 0.3 0.4 0.5 0.6 0.8 0.6 0.4 0.3 0.2 0.3 0.3 0.2 0.3 0.5 0.3 0.8
1.5 0.3 0.3 0.1 0.0 0.0 0.2 0.1 0.3 0.5 0.3 0.1 0.2 0.2 0.6 1.0 0.9 1.2 1.2 1.0 1.6 1.4 0.8 0.8 0.6 0.8 0.4 0.5 0.6 0.9 0.7 0.7
5.1 5.9 2.3 2.8 3.6 1.2 1.6 2.5 1.2 0.5 0.2 0.3 0.7 1.2 2.2 1.9 2.2 2.1 1.9 1.9 1.9 1.7 1.7 1.7 2.0 1.8 1.9 1.5 1.3 1.4 1.0 0.8
3.9 9.3 10.6 9.0 9.0 7.5 5.6 1.7 1.0 0.5 0.7 0.6 2.1 2.7 2.5 2.4 2.5 2.3 2.5 2.5 2.3 2.3 2.3 1.6 1.6 1.7 1.9 2.0 2.1 1.9 1.8 1.6
1.6 3.6 6.4 11.7 6.6 8.7 6.2 4.8 5.2 2.7 3.2 2.8 3.3 3.6 3.5 3.3 3.1 2.7 2.5 2.5 2.8 2.0 2.3 2.5 2.0 1.8 1.8 1.8 2.0 1.8 1.7 1.6
1.8 1.8 2.5 3.1 3.7 8.2 14.7 6.4 5.8 7.3 7.4 4.8 4.3 4.6 5.0 4.4 3.0 2.9 1.2 0.8 0.9 1.2 1.8 3.0 3.0 2.0 1.6 2.0 1.5 1.4 1.6 2.1
1.7 1.9 2.1 1.9 1.8 2.1 3.5 3.6 5.7 6.1 9.1 8.4 8.2 6.3 4.2 3.3 3.1 2.0 1.1 1.2 1.3 0.5 0.0 0.3 0.4 1.1 1.9 1.5 1.7 1.3 1.0 1.7
1.4 1.3 0.6 0.7 1.0 1.6 1.2 1.6 3.9 3.4 4.7 9.3 7.7 6.8 7.0 4.5 3.0 2.1 2.3 2.2 1.2 1.6 2.5 2.0 1.6 1.9 0.8 0.8 1.1 1.7 4.0 4.0
1.4 1.1 1.1 1.0 1.0 0.8 0.8 1.1 1.8 2.4 2.5 7.9 9.6 8.7 6.9 8.5 1.4 1.5 2.9 5.5 5.2 4.1 5.3 3.3 5.4 6.0 4.4 2.3 1.1 2.5 2.7 2.1
1.8 1.6 1.1 1.0 0.2 0.2 0.0 0.0 0.2 1.1 0.4 3.3 4.7 4.8 6.1 16.7 11.6 12.8 14.6 9.0 11.1 11.0 10.9 11.6 11.2 14.5 13.0 16.7 17.2 8.8 8.4 8.7

GFSFLT1_prec_snow_369.txt.gz
Snowfall_Accumulation
0.0 0.0 0.0 0.0 0.0 0.0 0.0 0.0 0.0 0.0 0.0 0.0 0.0 0.0 0.0 0.0 0.0 0.0 0.0 0.0 0.0 0.0 0.0 0.0 0.0 0.0 0.0 0.0 0.0 0.0 0.0 0.0
0.0 0.0 0.0 0.0 0.0 0.0 0.0 0.0 0.0 0.0 0.0 0.0 0.0 0.0 0.0 0.0 0.0 0.0 0.0 0.0 0.0 0.0 0.0 0.0 0.0 0.0 0.0 0.0 0.0 0.0 0.0 0.0
0.0 0.0 0.0 0.0 0.0 0.0 0.0 0.0 0.0 0.0 0.0 0.0 0.0 0.0 0.0 0.0 0.0 0.0 0.0 0.0 0.0 0.0 0.0 0.0 0.0 0.0 0.0 0.0 0.0 0.0 0.0 0.0
0.0 0.0 0.0 0.0 0.0 0.0 0.0 0.0 0.0 0.0 0.0 0.0 0.0 0.0 0.0 0.0 0.0 0.0 0.0 0.0 0.0 0.0 0.0 0.0 0.0 0.0 0.0 0.0 0.0 0.0 0.2 0.0
0.0 0.0 0.0 0.0 0.0 0.0 0.0 0.0 0.0 0.0 0.0 0.0 0.0 0.0 0.0 0.0 0.0 0.0 0.0 0.0 0.0 0.0 0.0 0.0 0.0 0.0 0.0 0.0 0.0 0.1 0.1 0.2
0.0 0.0 0.0 0.0 0.0 0.0 0.0 0.0 0.0 0.0 0.0 0.0 0.0 0.0 0.0 0.0 0.0 0.0 0.0 0.0 0.0 0.0 0.0 0.0 0.0 0.0 0.0 0.1 0.1 0.0 0.1 0.3
0.0 0.0 0.0 0.0 0.0 0.0 0.0 0.0 0.0 0.0 0.0 0.0 0.0 0.0 0.0 0.0 0.0 0.0 0.0 0.0 0.0 0.0 0.0 0.0 0.0 0.0 0.1 0.0 0.2 0.2 0.2 0.1
0.0 0.0 0.0 0.0 0.0 0.0 0.0 0.0 0.0 0.0 0.0 0.0 0.0 0.0 0.0 0.0 0.1 0.1 0.1 0.1 0.1 0.0 0.0 0.1 0.0 0.1 0.1 0.2 0.1 0.2 0.3 0.4
0.0 0.0 0.0 0.0 0.0 0.0 0.0 0.0 0.0 0.0 0.0 0.0 0.0 0.0 0.0 0.2 0.2 0.3 0.3 0.5 0.5 0.4 0.3 0.1 0.1 0.4 0.1 0.2 0.3 0.3 0.4 0.7
0.1 0.0 0.0 0.0 0.0 0.0 0.1 0.0 0.0 0.0 0.0 0.0 0.0 0.1 0.3 0.4 0.3 0.4 0.5 0.6 0.8 0.6 0.4 0.3 0.2 0.3 0.3 0.2 0.3 0.5 0.3 0.8
1.5 0.3 0.3 0.1 0.0 0.0 0.2 0.1 0.3 0.5 0.3 0.1 0.2 0.2 0.6 1.0 0.9 1.2 1.2 1.0 1.6 1.4 0.8 0.8 0.6 0.8 0.4 0.5 0.6 0.9 0.7 0.7
5.1 5.9 2.3 2.8 3.6 1.2 1.6 2.5 1.2 0.5 0.2 0.3 0.7 1.2 2.2 1.9 2.2 2.1 1.9 1.9 1.9 1.7 1.7 1.7 2.0 1.8 1.9 1.5 1.3 1.4 1.0 0.8
3.9 9.3 10.6 9.0 9.0 7.5 5.6 1.7 1.0 0.5 0.7 0.6 2.1 2.7 2.5 2.4 2.5 2.3 2.5 2.5 2.3 2.3 2.3 1.6 1.6 1.7 1.9 2.0 2.1 1.9 1.8 1.6
1.6 3.6 6.4 11.7 6.6 8.7 6.2 4.8 5.2 2.7 3.2 2.8 3.3 3.6 3.5 3.3 3.1 2.7 2.5 2.5 2.8 2.0 2.3 2.5 2.0 1.8 1.8 1.8 2.0 1.8 1.7 1.6
2.4 1.8 2.5 3.1 3.7 8.2 14.7 6.4 5.8 7.3 7.4 4.8 4.3 4.6 5.0 4.4 3.0 2.9 1.2 0.8 0.9 1.2 1.8 3.0 3.0 2.0 1.6 2.0 1.5 1.4 1.6 2.1
1.7 1.9 2.1 1.9 1.8 2.1 3.5 3.6 5.7 6.1 9.1 8.4 8.2 6.3 4.2 3.3 3.1 2.0 1.1 1.2 1.3 0.5 0.0 0.3 0.4 1.1 1.9 1.5 1.7 1.3 1.0 1.7
1.4 1.3 0.6 0.7 1.0 1.6 1.2 1.6 3.9 3.4 4.7 9.3 7.7 6.8 7.0 4.5 3.0 2.1 2.3 2.2 1.2 1.6 2.5 2.0 1.6 1.9 0.8 0.8 1.1 1.7 4.0 4.0
1.4 1.1 1.1 1.0 1.0 0.8 0.8 1.1 1.8 2.4 2.5 7.9 9.6 8.7 6.9 8.5 1.4 1.5 2.9 5.5 5.2 4.1 5.3 3.3 5.4 6.0 4.4 2.3 1.1 2.5 2.7 2.1
1.8 1.7 1.2 1.1 0.2 0.3 0.0 0.0 0.2 1.1 0.4 3.3 4.7 4.8 6.1 16.7 11.6 12.8 14.6 9.0 11.1 11.0 10.9 11.6 11.2 14.5 13.0 16.7 17.2 8.8 8.4 8.7

GFSFLT1_prec_snow_372.txt.gz
Snowfall_Accumulation
0.0 0.0 0.0 0.0 0.0 0.0 0.0 0.0 0.0 0.0 0.0 0.0 0.0 0.0 0.0 0.0 0.0 0.0 0.0 0.0 0.0 0.0 0.0 0.0 0.0 0.0 0.0 0.0 0.0 0.0 0.0 0.0
0.0 0.0 0.0 0.0 0.0 0.0 0.0 0.0 0.0 0.0 0.0 0.0 0.0 0.0 0.0 0.0 0.0 0.0 0.0 0.0 0.0 0.0 0.0 0.0 0.0 0.0 0.0 0.0 0.0 0.0 0.0 0.0
0.0 0.0 0.0 0.0 0.0 0.0 0.0 0.0 0.0 0.0 0.0 0.0 0.0 0.0 0.0 0.0 0.0 0.0 0.0 0.0 0.0 0.0 0.0 0.0 0.0 0.0 0.0 0.0 0.0 0.0 0.0 0.0
0.0 0.0 0.0 0.0 0.0 0.0 0.0 0.0 0.0 0.0 0.0 0.0 0.0 0.0 0.0 0.0 0.0 0.0 0.0 0.0 0.0 0.0 0.0 0.0 0.0 0.0 0.0 0.0 0.0 0.0 0.2 0.0
0.0 0.0 0.0 0.0 0.0 0.0 0.0 0.0 0.0 0.0 0.0 0.0 0.0 0.0 0.0 0.0 0.0 0.0 0.0 0.0 0.0 0.0 0.0 0.0 0.0 0.0 0.0 0.0 0.0 0.1 0.1 0.2
0.0 0.0 0.0 0.0 0.0 0.0 0.0 0.0 0.0 0.0 0.0 0.0 0.0 0.0 0.0 0.0 0.0 0.0 0.0 0.0 0.0 0.0 0.0 0.0 0.0 0.0 0.0 0.1 0.1 0.0 0.1 0.3
0.0 0.0 0.0 0.0 0.0 0.0 0.0 0.0 0.0 0.0 0.0 0.0 0.0 0.0 0.0 0.0 0.0 0.0 0.0 0.0 0.0 0.0 0.0 0.0 0.0 0.0 0.1 0.0 0.2 0.2 0.2 0.1
0.0 0.0 0.0 0.0 0.0 0.0 0.0 0.0 0.0 0.0 0.0 0.0 0.0 0.0 0.0 0.0 0.1 0.1 0.1 0.1 0.1 0.0 0.0 0.1 0.0 0.1 0.1 0.2 0.1 0.2 0.3 0.4
0.0 0.0 0.0 0.0 0.0 0.0 0.0 0.0 0.0 0.0 0.0 0.0 0.0 0.0 0.0 0.2 0.2 0.3 0.3 0.5 0.5 0.4 0.3 0.1 0.1 0.4 0.1 0.2 0.3 0.3 0.4 0.7
0.1 0.0 0.0 0.0 0.0 0.0 0.1 0.0 0.0 0.0 0.0 0.0 0.0 0.1 0.3 0.4 0.3 0.4 0.5 0.6 0.8 0.6 0.4 0.3 0.2 0.3 0.3 0.2 0.3 0.5 0.3 0.8
1.6 0.4 0.3 0.1 0.0 0.0 0.2 0.1 0.3 0.5 0.3 0.1 0.2 0.2 0.6 1.0 0.9 1.2 1.2 1.0 1.6 1.4 0.8 0.8 0.6 0.8 0.4 0.5 0.6 0.9 0.7 0.7
5.3 6.0 2.3 2.8 3.6 1.2 1.6 2.5 1.2 0.5 0.2 0.3 0.7 1.2 2.2 1.9 2.2 2.1 1.9 1.9 1.9 1.7 1.7 1.7 2.0 1.8 1.9 1.5 1.3 1.4 1.0 0.8
4.4 9.4 10.6 9.0 9.0 7.5 5.6 1.7 1.0 0.5 0.7 0.6 2.1 2.7 2.5 2.4 2.5 2.3 2.5 2.5 2.3 2.3 2.3 1.6 1.6 1.7 1.9 2.0 2.1 1.9 1.8 1.6
2.3 3.8 6.4 11.7 6.6 8.7 6.2 4.8 5.2 2.7 3.2 2.8 3.3 3.6 3.5 3.3 3.1 2.7 2.5 2.5 2.8 2.0 2.3 2.5 2.0 1.8 1.8 1.8 2.0 1.8 1.7 1.6
2.8 1.8 2.6 3.1 3.7 8.2 14.7 6.4 5.8 7.3 7.4 4.8 4.3 4.6 5.0 4.4 3.0 2.9 1.2 0.8 0.9 1.2 1.8 3.0 3.0 2.0 1.6 2.0 1.5 1.4 1.6 2.1
1.7 1.9 2.1 1.9 1.8 2.1 3.5 3.6 5.7 6.1 9.1 8.4 8.2 6.3 4.2 3.3 3.1 2.0 1.1 1.2 1.3 0.5 0.0 0.3 0.4 1.1 1.9 1.5 1.7 1.3 1.0 1.7
1.4 1.3 0.6 0.7 1.0 1.6 1.2 1.6 3.9 3.4 4.7 9.3 7.7 6.8 7.0 4.5 3.0 2.1 2.3 2.2 1.2 1.6 2.5 2.0 1.6 1.9 0.8 0.8 1.1 1.7 4.0 4.0
1.4 1.1 1.1 1.0 1.0 0.8 0.8 1.1 1.8 2.4 2.5 7.9 9.6 8.7 6.9 8.5 1.4 1.5 2.9 5.5 5.2 4.1 5.3 3.3 5.4 6.0 4.4 2.3 1.1 2.5 2.7 2.1
1.8 1.7 1.2 1.1 0.2 0.3 0.0 0.0 0.2 1.1 0.4 3.3 4.7 4.8 6.1 16.7 11.6 12.8 14.6 9.0 11.1 11.0 10.9 11.6 11.2 14.5 13.0 16.7 17.2 8.8 8.4 8.7

GFSFLT1_prec_snow_378.txt.gz
Snowfall_Accumulation
0.0 0.0 0.0 0.0 0.0 0.0 0.0 0.0 0.0 0.0 0.0 0.0 0.0 0.0 0.0 0.0 0.0 0.0 0.0 0.0 0.0 0.0 0.0 0.0 0.0 0.0 0.0 0.0 0.0 0.0 0.0 0.0
0.0 0.0 0.0 0.0 0.0 0.0 0.0 0.0 0.0 0.0 0.0 0.0 0.0 0.0 0.0 0.0 0.0 0.0 0.0 0.0 0.0 0.0 0.0 0.0 0.0 0.0 0.0 0.0 0.0 0.0 0.0 0.0
0.0 0.0 0.0 0.0 0.0 0.0 0.0 0.0 0.0 0.0 0.0 0.0 0.0 0.0 0.0 0.0 0.0 0.0 0.0 0.0 0.0 0.0 0.0 0.0 0.0 0.0 0.0 0.0 0.0 0.0 0.0 0.0
0.0 0.0 0.0 0.0 0.0 0.0 0.0 0.0 0.0 0.0 0.0 0.0 0.0 0.0 0.0 0.0 0.0 0.0 0.0 0.0 0.0 0.0 0.0 0.0 0.0 0.0 0.0 0.0 0.0 0.0 0.2 0.0
0.0 0.0 0.0 0.0 0.0 0.0 0.0 0.0 0.0 0.0 0.0 0.0 0.0 0.0 0.0 0.0 0.0 0.0 0.0 0.0 0.0 0.0 0.0 0.0 0.0 0.0 0.0 0.0 0.0 0.1 0.1 0.2
0.0 0.0 0.0 0.0 0.0 0.0 0.0 0.0 0.0 0.0 0.0 0.0 0.0 0.0 0.0 0.0 0.0 0.0 0.0 0.0 0.0 0.0 0.0 0.0 0.0 0.0 0.0 0.1 0.1 0.0 0.1 0.3
0.0 0.0 0.0 0.0 0.0 0.0 0.0 0.0 0.0 0.0 0.0 0.0 0.0 0.0 0.0 0.0 0.0 0.0 0.0 0.0 0.0 0.0 0.0 0.0 0.0 0.0 0.1 0.0 0.2 0.2 0.2 0.1
0.0 0.0 0.0 0.0 0.0 0.0 0.0 0.0 0.0 0.0 0.0 0.0 0.0 0.0 0.0 0.0 0.1 0.1 0.1 0.1 0.1 0.0 0.0 0.1 0.0 0.1 0.1 0.2 0.1 0.2 0.3 0.4
0.0 0.0 0.0 0.0 0.0 0.0 0.0 0.0 0.0 0.0 0.0 0.0 0.0 0.0 0.0 0.2 0.2 0.3 0.3 0.5 0.5 0.4 0.3 0.1 0.1 0.4 0.1 0.2 0.3 0.3 0.4 0.7
0.1 0.0 0.0 0.0 0.0 0.0 0.1 0.0 0.0 0.0 0.0 0.0 0.0 0.1 0.3 0.4 0.3 0.4 0.5 0.6 0.8 0.6 0.4 0.3 0.2 0.3 0.3 0.2 0.3 0.5 0.3 0.8
1.6 0.4 0.3 0.1 0.0 0.0 0.2 0.1 0.3 0.5 0.3 0.1 0.2 0.2 0.6 1.0 0.9 1.2 1.2 1.0 1.6 1.4 0.8 0.8 0.6 0.8 0.4 0.5 0.6 0.9 0.7 0.7
5.3 6.3 2.3 2.8 3.6 1.2 1.6 2.5 1.2 0.5 0.2 0.3 0.7 1.2 2.2 1.9 2.2 2.1 1.9 1.9 1.9 1.7 1.7 1.7 2.0 1.8 1.9 1.5 1.3 1.4 1.0 0.8
5.2 10.2 10.9 9.0 9.5 7.5 5.6 1.7 1.0 0.5 0.7 0.6 2.1 2.7 2.5 2.4 2.5 2.3 2.5 2.5 2.3 2.3 2.3 1.6 1.6 1.7 1.9 2.0 2.1 1.9 1.8 1.6
3.4 5.1 7.5 12.1 6.6 9.3 6.2 4.8 5.2 2.7 3.2 2.8 3.3 3.6 3.5 3.3 3.1 2.7 2.5 2.5 2.8 2.0 2.3 2.5 2.0 1.8 1.8 1.8 2.0 1.8 1.7 1.6
4.1 3.3 4.0 3.8 4.0 8.6 16.1 6.8 5.8 7.3 7.4 4.8 4.3 4.6 5.0 4.4 3.0 2.9 1.2 0.8 0.9 1.2 1.8 3.0 3.0 2.0 1.6 2.0 1.5 1.4 1.6 2.1
2.2 3.4 3.9 3.0 2.3 2.3 3.9 4.8 5.7 6.1 9.1 8.4 8.2 6.3 4.2 3.3 3.1 2.0 1.1 1.2 1.3 0.5 0.0 0.3 0.4 1.1 1.9 1.5 1.7 1.3 1.0 1.7
1.5 1.9 2.5 2.2 1.9 1.8 1.4 1.6 3.9 3.4 4.7 9.3 7.7 6.8 7.0 4.5 3.0 2.1 2.3 2.2 1.2 1.6 2.5 2.0 1.6 1.9 0.8 0.8 1.1 1.7 4.0 4.0
1.4 1.2 1.6 1.7 1.4 1.0 1.0 1.1 1.8 2.4 2.5 7.9 9.6 8.7 6.9 8.5 1.4 1.5 2.9 5.5 5.2 4.1 5.3 3.3 5.4 6.0 4.4 2.3 1.1 2.5 2.7 2.1
1.8 1.7 1.2 1.1 0.3 0.3 0.0 0.0 0.2 1.1 0.4 3.3 4.7 4.8 6.1 16.7 11.6 12.8 14.6 9.0 11.1 11.0 10.9 11.6 11.2 14.5 13.0 16.7 17.2 8.8 8.4 8.7

GFSFLT1_prec_snow_381.txt.gz
Snowfall_Accumulation
0.0 0.0 0.0 0.0 0.0 0.0 0.0 0.0 0.0 0.0 0.0 0.0 0.0 0.0 0.0 0.0 0.0 0.0 0.0 0.0 0.0 0.0 0.0 0.0 0.0 0.0 0.0 0.0 0.0 0.0 0.0 0.0
0.0 0.0 0.0 0.0 0.0 0.0 0.0 0.0 0.0 0.0 0.0 0.0 0.0 0.0 0.0 0.0 0.0 0.0 0.0 0.0 0.0 0.0 0.0 0.0 0.0 0.0 0.0 0.0 0.0 0.0 0.0 0.0
0.0 0.0 0.0 0.0 0.0 0.0 0.0 0.0 0.0 0.0 0.0 0.0 0.0 0.0 0.0 0.0 0.0 0.0 0.0 0.0 0.0 0.0 0.0 0.0 0.0 0.0 0.0 0.0 0.0 0.0 0.0 0.0
0.0 0.0 0.0 0.0 0.0 0.0 0.0 0.0 0.0 0.0 0.0 0.0 0.0 0.0 0.0 0.0 0.0 0.0 0.0 0.0 0.0 0.0 0.0 0.0 0.0 0.0 0.0 0.0 0.0 0.0 0.2 0.0
0.0 0.0 0.0 0.0 0.0 0.0 0.0 0.0 0.0 0.0 0.0 0.0 0.0 0.0 0.0 0.0 0.0 0.0 0.0 0.0 0.0 0.0 0.0 0.0 0.0 0.0 0.0 0.0 0.0 0.1 0.1 0.2
0.0 0.0 0.0 0.0 0.0 0.0 0.0 0.0 0.0 0.0 0.0 0.0 0.0 0.0 0.0 0.0 0.0 0.0 0.0 0.0 0.0 0.0 0.0 0.0 0.0 0.0 0.0 0.1 0.1 0.0 0.1 0.3
0.0 0.0 0.0 0.0 0.0 0.0 0.0 0.0 0.0 0.0 0.0 0.0 0.0 0.0 0.0 0.0 0.0 0.0 0.0 0.0 0.0 0.0 0.0 0.0 0.0 0.0 0.1 0.0 0.2 0.2 0.2 0.1
0.0 0.0 0.0 0.0 0.0 0.0 0.0 0.0 0.0 0.0 0.0 0.0 0.0 0.0 0.0 0.0 0.1 0.1 0.1 0.1 0.1 0.0 0.0 0.1 0.0 0.1 0.1 0.2 0.1 0.2 0.3 0.4
0.0 0.0 0.0 0.0 0.0 0.0 0.0 0.0 0.0 0.0 0.0 0.0 0.0 0.0 0.0 0.2 0.2 0.3 0.3 0.5 0.5 0.4 0.3 0.1 0.1 0.4 0.1 0.2 0.3 0.3 0.4 0.7
0.1 0.0 0.0 0.0 0.0 0.0 0.1 0.0 0.0 0.0 0.0 0.0 0.0 0.1 0.3 0.4 0.3 0.4 0.5 0.6 0.8 0.6 0.4 0.3 0.2 0.3 0.3 0.2 0.3 0.5 0.3 0.8
1.6 0.4 0.3 0.1 0.0 0.0 0.2 0.1 0.3 0.5 0.3 0.1 0.2 0.2 0.6 1.0 0.9 1.2 1.2 1.0 1.6 1.4 0.8 0.8 0.6 0.8 0.4 0.5 0.6 0.9 0.7 0.7
5.3 6.3 2.3 2.8 3.6 1.2 1.6 2.5 1.2 0.5 0.2 0.3 0.7 1.2 2.2 1.9 2.2 2.1 1.9 1.9 1.9 1.7 1.7 1.7 2.0 1.8 1.9 1.5 1.3 1.4 1.0 0.8
5.2 10.2 10.9 9.0 9.5 7.5 5.6 1.7 1.0 0.5 0.7 0.6 2.1 2.7 2.5 2.4 2.5 2.3 2.5 2.5 2.3 2.3 2.3 1.6 1.6 1.7 1.9 2.0 2.1 1.9 1.8 1.6
3.4 5.1 7.5 12.1 6.6 9.3 6.2 4.8 5.2 2.7 3.2 2.8 3.3 3.6 3.5 3.3 3.1 2.7 2.5 2.5 2.8 2.0 2.3 2.5 2.0 1.8 1.8 1.8 2.0 1.8 1.7 1.6
4.1 3.3 4.0 3.8 4.0 8.6 16.1 6.8 5.8 7.3 7.4 4.8 4.3 4.6 5.0 4.4 3.0 2.9 1.2 0.8 0.9 1.2 1.8 3.0 3.0 2.0 1.6 2.0 1.5 1.4 1.6 2.1
2.2 3.4 3.9 3.2 2.5 2.5 4.2 4.8 5.7 6.1 9.1 8.4 8.2 6.3 4.2 3.3 3.1 2.0 1.1 1.2 1.3 0.5 0.0 0.3 0.4 1.1 1.9 1.5 1.7 1.3 1.0 1.7
1.5 1.9 2.5 3.2 2.6 2.5 2.0 2.6 3.9 3.4 4.7 9.3 7.7 6.8 7.0 4.5 3.0 2.1 2.3 2.2 1.2 1.6 2.5 2.0 1.6 1.9 0.8 0.8 1.1 1.7 4.0 4.0
1.4 1.3 2.5 4.1 2.9 2.4 2.8 2.4 1.8 2.4 2.5 7.9 9.6 8.7 6.9 8.5 1.4 1.5 2.9 5.5 5.2 4.1 5.3 3.3 5.4 6.0 4.4 2.3 1.1 2.5 2.7 2.1
1.8 1.7 1.2 1.9 0.3 1.2 2.6 2.1 1.2 1.1 0.4 3.3 4.7 4.8 6.1 16.7 11.6 12.8 14.6 9.0 11.1 11.0 10.9 11.6 11.2 14.5 13.0 16.7 17.2 8.8 8.4 8.7

GFSFLT1_prec_snow_384.txt.gz
Snowfall_Accumulation
0.0 0.0 0.0 0.0 0.0 0.0 0.0 0.0 0.0 0.0 0.0 0.0 0.0 0.0 0.0 0.0 0.0 0.0 0.0 0.0 0.0 0.0 0.0 0.0 0.0 0.0 0.0 0.0 0.0 0.0 0.0 0.0
0.0 0.0 0.0 0.0 0.0 0.0 0.0 0.0 0.0 0.0 0.0 0.0 0.0 0.0 0.0 0.0 0.0 0.0 0.0 0.0 0.0 0.0 0.0 0.0 0.0 0.0 0.0 0.0 0.0 0.0 0.0 0.0
0.0 0.0 0.0 0.0 0.0 0.0 0.0 0.0 0.0 0.0 0.0 0.0 0.0 0.0 0.0 0.0 0.0 0.0 0.0 0.0 0.0 0.0 0.0 0.0 0.0 0.0 0.0 0.0 0.0 0.0 0.0 0.0
0.0 0.0 0.0 0.0 0.0 0.0 0.0 0.0 0.0 0.0 0.0 0.0 0.0 0.0 0.0 0.0 0.0 0.0 0.0 0.0 0.0 0.0 0.0 0.0 0.0 0.0 0.0 0.0 0.0 0.0 0.2 0.0
0.0 0.0 0.0 0.0 0.0 0.0 0.0 0.0 0.0 0.0 0.0 0.0 0.0 0.0 0.0 0.0 0.0 0.0 0.0 0.0 0.0 0.0 0.0 0.0 0.0 0.0 0.0 0.0 0.0 0.1 0.1 0.2
0.0 0.0 0.0 0.0 0.0 0.0 0.0 0.0 0.0 0.0 0.0 0.0 0.0 0.0 0.0 0.0 0.0 0.0 0.0 0.0 0.0 0.0 0.0 0.0 0.0 0.0 0.0 0.1 0.1 0.0 0.1 0.3
0.0 0.0 0.0 0.0 0.0 0.0 0.0 0.0 0.0 0.0 0.0 0.0 0.0 0.0 0.0 0.0 0.0 0.0 0.0 0.0 0.0 0.0 0.0 0.0 0.0 0.0 0.1 0.0 0.2 0.2 0.2 0.1
0.0 0.0 0.0 0.0 0.0 0.0 0.0 0.0 0.0 0.0 0.0 0.0 0.0 0.0 0.0 0.0 0.1 0.1 0.1 0.1 0.1 0.0 0.0 0.1 0.0 0.1 0.1 0.2 0.1 0.2 0.3 0.4
0.0 0.0 0.0 0.0 0.0 0.0 0.0 0.0 0.0 0.0 0.0 0.0 0.0 0.0 0.0 0.2 0.2 0.3 0.3 0.5 0.5 0.4 0.3 0.1 0.1 0.4 0.1 0.2 0.3 0.3 0.4 0.7
0.1 0.0 0.0 0.0 0.0 0.0 0.1 0.0 0.0 0.0 0.0 0.0 0.0 0.1 0.3 0.4 0.3 0.4 0.5 0.6 0.8 0.6 0.4 0.3 0.2 0.3 0.3 0.2 0.3 0.5 0.3 0.8
1.6 0.4 0.3 0.1 0.0 0.0 0.2 0.1 0.3 0.5 0.3 0.1 0.2 0.2 0.6 1.0 0.9 1.2 1.2 1.0 1.6 1.4 0.8 0.8 0.6 0.8 0.4 0.5 0.6 0.9 0.7 0.7
5.3 6.3 2.3 2.8 3.6 1.2 1.6 2.5 1.2 0.5 0.2 0.3 0.7 1.2 2.2 1.9 2.2 2.1 1.9 1.9 1.9 1.7 1.7 1.7 2.0 1.8 1.9 1.5 1.3 1.4 1.0 0.8
5.2 10.2 10.9 9.0 9.5 7.5 5.6 1.7 1.0 0.5 0.7 0.6 2.1 2.7 2.5 2.4 2.5 2.3 2.5 2.5 2.3 2.3 2.3 1.6 1.6 1.7 1.9 2.0 2.1 1.9 1.8 1.6
3.4 5.1 7.5 12.1 6.6 9.3 6.2 4.8 5.2 2.7 3.2 2.8 3.3 3.6 3.5 3.3 3.1 2.7 2.5 2.5 2.8 2.0 2.3 2.5 2.0 1.8 1.8 1.8 2.0 1.8 1.7 1.6
4.1 3.3 4.0 3.8 4.0 8.6 16.1 6.8 5.8 7.3 7.4 4.8 4.3 4.6 5.0 4.4 3.0 2.9 1.2 0.8 0.9 1.2 1.8 3.0 3.0 2.0 1.6 2.0 1.5 1.4 1.6 2.1
2.2 3.4 3.9 3.2 2.5 2.5 4.2 4.8 5.7 6.1 9.1 8.4 8.2 6.3 4.2 3.3 3.1 2.0 1.1 1.2 1.3 0.5 0.0 0.3 0.4 1.1 1.9 1.5 1.7 1.3 1.0 1.7
1.5 1.9 2.5 3.2 2.8 2.7 2.1 2.7 3.9 3.4 4.7 9.3 7.7 6.8 7.0 4.5 3.0 2.1 2.3 2.2 1.2 1.6 2.5 2.0 1.6 1.9 0.8 0.8 1.1 1.7 4.0 4.0
1.4 1.3 2.5 4.1 3.3 3.2 3.3 2.4 1.8 2.4 2.5 7.9 9.6 8.7 6.9 8.5 1.4 1.5 2.9 5.5 5.2 4.1 5.3 3.3 5.4 6.0 4.4 2.3 1.1 2.5 2.7 2.1
1.8 1.7 1.2 1.9 1.2 2.7 4.9 3.6 3.0 2.2 1.7 3.3 4.7 4.8 6.1 16.7 11.6 12.8 14.6 9.0 11.1 11.0 10.9 11.6 11.2 14.5 13.0 16.7 17.2 8.8 8.4 8.7